AFR87DR LFPG-LFSB

Flight info

Callsign AFR87DR
Flight time 0h 47m
Altitude 31000
Route BUBLI DCT LUVAL DCT OKIPO DCT LUL G42 ARPUS
Aircraft E190/M-SDE3GILORVW/S

Departure

Time 2026-05-07 21:15
Airport Charles de Gaulle International Airport (LFPG)

Arrival

Time 2026-05-07 22:02
Airport EuroAirport Basel–Mulhouse–Freiburg (LFSB)
Time Latitude Longitude Altitude Speed Heading
2026-05-07 20:50 49.00413 2.60000 355 ft 0 kts 85°
2026-05-07 20:51 49.00412 2.59991 359 ft 0 kts 85°
2026-05-07 21:02 49.00411 2.59969 359 ft 2 kts 85°
2026-05-07 21:03 49.00410 2.59935 356 ft 4 kts 110°
2026-05-07 21:03 49.00422 2.59919 361 ft 4 kts 176°
2026-05-07 21:03 49.00433 2.59918 359 ft 3 kts 176°
2026-05-07 21:06 49.00422 2.59919 361 ft 4 kts 176°
2026-05-07 21:06 49.00385 2.59923 356 ft 6 kts 176°
2026-05-07 21:06 49.00334 2.59929 358 ft 9 kts 175°
2026-05-07 21:06 49.00287 2.59882 354 ft 9 kts 258°
2026-05-07 21:07 49.00282 2.59785 355 ft 10 kts 265°
2026-05-07 21:07 49.00276 2.59681 358 ft 8 kts 264°
2026-05-07 21:07 49.00237 2.59623 353 ft 10 kts 190°
2026-05-07 21:07 49.00161 2.59628 353 ft 12 kts 175°
2026-05-07 21:08 49.00090 2.59604 353 ft 10 kts 236°
2026-05-07 21:08 49.00076 2.59487 356 ft 13 kts 267°
2026-05-07 21:08 49.00067 2.59334 355 ft 16 kts 266°
2026-05-07 21:08 49.00057 2.59159 357 ft 17 kts 266°
2026-05-07 21:09 49.00049 2.58966 357 ft 19 kts 266°
2026-05-07 21:09 49.00036 2.58765 353 ft 20 kts 265°
2026-05-07 21:09 49.00027 2.58556 353 ft 20 kts 263°
2026-05-07 21:09 49.00015 2.58360 356 ft 18 kts 266°
2026-05-07 21:10 49.00005 2.58168 353 ft 19 kts 265°
2026-05-07 21:10 48.99993 2.57964 356 ft 20 kts 265°
2026-05-07 21:10 48.99983 2.57751 356 ft 21 kts 265°
2026-05-07 21:10 48.99972 2.57527 356 ft 22 kts 266°
2026-05-07 21:11 48.99961 2.57312 353 ft 19 kts 266°
2026-05-07 21:11 48.99949 2.57112 359 ft 20 kts 265°
2026-05-07 21:11 48.99925 2.56675 353 ft 22 kts 265°
2026-05-07 21:12 48.99913 2.56445 359 ft 17 kts 265°
2026-05-07 21:12 48.99904 2.56265 353 ft 17 kts 265°
2026-05-07 21:12 48.99896 2.56109 353 ft 14 kts 264°
2026-05-07 21:12 48.99847 2.56009 358 ft 12 kts 201°
2026-05-07 21:13 48.99772 2.56025 359 ft 11 kts 171°
2026-05-07 21:13 48.99692 2.56035 353 ft 12 kts 175°
2026-05-07 21:13 48.99623 2.56044 353 ft 3 kts 174°
2026-05-07 21:13 48.99611 2.56062 357 ft 3 kts 116°
2026-05-07 21:14 48.99613 2.56081 353 ft 0 kts 84°
2026-05-07 21:14 48.99619 2.56199 355 ft 37 kts 85°
2026-05-07 21:14 48.99659 2.56931 358 ft 100 kts 85°
2026-05-07 21:14 48.99730 2.58257 379 ft 146 kts 86°
2026-05-07 21:15 48.99808 2.59834 890 ft 154 kts 87°
2026-05-07 21:15 48.99838 2.61518 1522 ft 162 kts 92°
2026-05-07 21:15 48.99820 2.63267 2058 ft 171 kts 89°
2026-05-07 21:15 48.99882 2.65190 2423 ft 191 kts 88°
2026-05-07 21:16 48.99969 2.67324 2761 ft 214 kts 87°
2026-05-07 21:16 49.00059 2.69666 3307 ft 230 kts 88°
2026-05-07 21:16 49.00162 2.72215 3657 ft 256 kts 84°
2026-05-07 21:16 49.00417 2.74933 4302 ft 265 kts 82°
2026-05-07 21:17 49.00590 2.77738 5110 ft 267 kts 90°
2026-05-07 21:17 49.00463 2.80572 5887 ft 269 kts 97°
2026-05-07 21:17 49.00173 2.83400 6601 ft 272 kts 99°
2026-05-07 21:17 48.99855 2.86273 7234 ft 277 kts 99°
2026-05-07 21:18 48.99548 2.89189 7864 ft 281 kts 99°
2026-05-07 21:18 48.99245 2.92153 8483 ft 286 kts 99°
2026-05-07 21:18 48.98939 2.95183 9124 ft 291 kts 100°
2026-05-07 21:18 48.98388 2.98152 9794 ft 295 kts 112°
2026-05-07 21:19 48.97568 3.01004 10320 ft 305 kts 116°
2026-05-07 21:19 48.96627 3.03995 10661 ft 320 kts 117°
2026-05-07 21:19 48.95670 3.07087 11260 ft 325 kts 116°
2026-05-07 21:19 48.94719 3.10221 11947 ft 327 kts 116°
2026-05-07 21:20 48.93763 3.13391 12607 ft 331 kts 116°
2026-05-07 21:20 48.92802 3.16592 13260 ft 334 kts 116°
2026-05-07 21:20 48.91832 3.19825 13909 ft 338 kts 116°
2026-05-07 21:20 48.90850 3.23090 14483 ft 341 kts 116°
2026-05-07 21:21 48.89857 3.26383 15065 ft 345 kts 116°
2026-05-07 21:21 48.88853 3.29710 15640 ft 348 kts 116°
2026-05-07 21:21 48.87835 3.33067 16197 ft 352 kts 116°
2026-05-07 21:21 48.86807 3.36452 16765 ft 355 kts 116°
2026-05-07 21:22 48.86118 3.38720 17137 ft 357 kts 116°
2026-05-07 21:22 48.84728 3.43287 17904 ft 362 kts 116°
2026-05-07 21:22 48.83667 3.46767 18461 ft 365 kts 116°
2026-05-07 21:22 48.82594 3.50282 18999 ft 368 kts 116°
2026-05-07 21:23 48.81864 3.52670 19367 ft 369 kts 116°
2026-05-07 21:23 48.81016 3.56305 19856 ft 374 kts 102°
2026-05-07 21:23 48.80673 3.60228 20409 ft 377 kts 96°
2026-05-07 21:23 48.80459 3.64224 20903 ft 381 kts 95°
2026-05-07 21:24 48.80237 3.68239 21391 ft 383 kts 96°
2026-05-07 21:24 48.79992 3.72277 21865 ft 386 kts 96°
2026-05-07 21:24 48.79733 3.76356 22330 ft 389 kts 96°
2026-05-07 21:24 48.79466 3.80455 22794 ft 392 kts 96°
2026-05-07 21:25 48.79195 3.84579 23256 ft 394 kts 96°
2026-05-07 21:25 48.78921 3.88733 23711 ft 397 kts 96°
2026-05-07 21:25 48.78648 3.92863 24117 ft 399 kts 96°
2026-05-07 21:25 48.78369 3.97059 24521 ft 402 kts 96°
2026-05-07 21:26 48.78087 4.01285 24920 ft 404 kts 96°
2026-05-07 21:26 48.77803 4.05538 25312 ft 406 kts 96°
2026-05-07 21:26 48.77517 4.09810 25678 ft 408 kts 96°
2026-05-07 21:26 48.77091 4.14073 26000 ft 410 kts 107°
2026-05-07 21:27 48.75881 4.17950 26333 ft 407 kts 125°
2026-05-07 21:27 48.74263 4.21488 26681 ft 409 kts 128°
2026-05-07 21:27 48.72584 4.24984 26989 ft 411 kts 128°
2026-05-07 21:27 48.70908 4.28503 27315 ft 413 kts 128°
2026-05-07 21:28 48.69230 4.32062 27649 ft 415 kts 127°
2026-05-07 21:28 48.67550 4.35645 27966 ft 417 kts 127°
2026-05-07 21:28 48.65870 4.39229 28271 ft 420 kts 127°
2026-05-07 21:28 48.64177 4.42835 28593 ft 422 kts 127°
2026-05-07 21:29 48.62493 4.46415 28895 ft 423 kts 128°
2026-05-07 21:29 48.60761 4.50094 29189 ft 426 kts 128°
2026-05-07 21:29 48.59060 4.53698 29465 ft 428 kts 128°
2026-05-07 21:29 48.57304 4.57412 29753 ft 430 kts 128°
2026-05-07 21:30 48.55587 4.61037 30018 ft 432 kts 128°
2026-05-07 21:30 48.53834 4.64732 30258 ft 434 kts 128°
2026-05-07 21:30 48.52073 4.68437 30475 ft 436 kts 128°
2026-05-07 21:30 48.50298 4.72163 30674 ft 437 kts 128°
2026-05-07 21:31 48.48520 4.75889 30881 ft 439 kts 128°
2026-05-07 21:31 48.46737 4.79622 31198 ft 438 kts 128°
2026-05-07 21:31 48.43113 4.87180 31148 ft 452 kts 128°
2026-05-07 21:32 48.41249 4.91052 31046 ft 460 kts 128°
2026-05-07 21:32 48.39364 4.94965 31059 ft 465 kts 128°
2026-05-07 21:32 48.35530 5.02917 31061 ft 473 kts 128°
2026-05-07 21:33 48.31655 5.10930 31066 ft 475 kts 128°
2026-05-07 21:33 48.27732 5.18909 31067 ft 474 kts 130°
2026-05-07 21:34 48.23575 5.26616 31065 ft 474 kts 131°
2026-05-07 21:34 48.19466 5.34276 31069 ft 475 kts 131°
2026-05-07 21:35 48.15341 5.42013 31066 ft 475 kts 131°
2026-05-07 21:35 48.11213 5.49733 31064 ft 475 kts 131°
2026-05-07 21:36 48.07077 5.57445 31059 ft 475 kts 131°
2026-05-07 21:36 48.02926 5.65162 31058 ft 475 kts 131°
2026-05-07 21:37 47.98815 5.72785 30815 ft 469 kts 131°
2026-05-07 21:37 47.96796 5.76523 30501 ft 452 kts 131°
2026-05-07 21:37 47.94843 5.80132 29816 ft 445 kts 131°
2026-05-07 21:38 47.92923 5.83669 29293 ft 433 kts 131°
2026-05-07 21:38 47.91043 5.87129 28670 ft 425 kts 131°
2026-05-07 21:38 47.89215 5.90548 28085 ft 419 kts 130°
2026-05-07 21:38 47.87445 5.93969 27586 ft 417 kts 130°
2026-05-07 21:39 47.85666 5.97414 27001 ft 420 kts 130°
2026-05-07 21:39 47.83886 6.00843 26450 ft 419 kts 130°
2026-05-07 21:39 47.82103 6.04256 25886 ft 416 kts 130°
2026-05-07 21:39 47.80332 6.07638 25340 ft 412 kts 130°
2026-05-07 21:40 47.78577 6.10984 24799 ft 408 kts 130°
2026-05-07 21:40 47.76843 6.14285 24264 ft 404 kts 129°
2026-05-07 21:40 47.75114 6.17574 23728 ft 401 kts 129°
2026-05-07 21:40 47.73407 6.20818 23183 ft 397 kts 129°
2026-05-07 21:41 47.71715 6.24031 22658 ft 393 kts 129°
2026-05-07 21:41 47.70059 6.27247 22170 ft 391 kts 124°
2026-05-07 21:41 47.68880 6.30883 21638 ft 392 kts 107°
2026-05-07 21:41 47.68468 6.34808 21174 ft 389 kts 95°
2026-05-07 21:42 47.68336 6.38827 20599 ft 388 kts 91°
2026-05-07 21:42 47.68260 6.42812 20100 ft 384 kts 92°
2026-05-07 21:42 47.68150 6.46748 19593 ft 380 kts 93°
2026-05-07 21:42 47.68005 6.50656 19093 ft 377 kts 94°
2026-05-07 21:43 47.67837 6.54527 18585 ft 375 kts 94°
2026-05-07 21:43 47.67663 6.58371 18074 ft 372 kts 94°
2026-05-07 21:43 47.67484 6.62186 17620 ft 367 kts 94°
2026-05-07 21:43 47.67301 6.65966 17100 ft 366 kts 94°
2026-05-07 21:44 47.67119 6.69712 16639 ft 363 kts 94°
2026-05-07 21:44 47.66943 6.73389 16171 ft 361 kts 94°
2026-05-07 21:44 47.66765 6.77087 15688 ft 358 kts 94°
2026-05-07 21:44 47.66588 6.80753 15221 ft 355 kts 94°
2026-05-07 21:45 47.66410 6.84392 14746 ft 352 kts 94°
2026-05-07 21:45 47.66234 6.87987 14284 ft 346 kts 94°
2026-05-07 21:45 47.66060 6.91512 13801 ft 336 kts 94°
2026-05-07 21:45 47.65894 6.94865 13340 ft 316 kts 94°
2026-05-07 21:46 47.65735 6.98050 12953 ft 306 kts 95°
2026-05-07 21:46 47.65576 7.01215 12595 ft 309 kts 95°
2026-05-07 21:46 47.65395 7.04392 12151 ft 310 kts 99°
2026-05-07 21:46 47.64885 7.07429 11769 ft 295 kts 108°
2026-05-07 21:47 47.64306 7.10283 11374 ft 281 kts 108°
2026-05-07 21:47 47.63782 7.12899 11228 ft 270 kts 108°
2026-05-07 21:47 47.63253 7.15548 11140 ft 267 kts 108°
2026-05-07 21:47 47.62725 7.18200 11105 ft 269 kts 108°
2026-05-07 21:48 47.62194 7.20875 11059 ft 270 kts 108°
2026-05-07 21:48 47.61666 7.23530 10555 ft 280 kts 108°
2026-05-07 21:48 47.61107 7.26321 10233 ft 278 kts 111°
2026-05-07 21:48 47.60183 7.28720 10097 ft 262 kts 134°
2026-05-07 21:49 47.58964 7.30665 9954 ft 253 kts 136°
2026-05-07 21:49 47.57788 7.32541 9795 ft 245 kts 136°
2026-05-07 21:49 47.56653 7.34360 9657 ft 236 kts 136°
2026-05-07 21:49 47.55468 7.35984 9531 ft 229 kts 144°
2026-05-07 21:50 47.54231 7.37486 9404 ft 232 kts 144°
2026-05-07 21:50 47.52975 7.39008 9223 ft 233 kts 144°
2026-05-07 21:50 47.51723 7.40518 9087 ft 232 kts 144°
2026-05-07 21:50 47.50473 7.42019 8938 ft 231 kts 144°
2026-05-07 21:51 47.49228 7.43510 8776 ft 230 kts 144°
2026-05-07 21:51 47.47987 7.44990 8625 ft 228 kts 144°
2026-05-07 21:51 47.46757 7.46424 8492 ft 226 kts 146°
2026-05-07 21:51 47.45480 7.47780 8331 ft 226 kts 147°
2026-05-07 21:52 47.44200 7.49125 8193 ft 226 kts 147°
2026-05-07 21:52 47.42915 7.50461 8032 ft 225 kts 147°
2026-05-07 21:52 47.41639 7.51785 7880 ft 223 kts 147°
2026-05-07 21:52 47.40366 7.53096 7732 ft 222 kts 147°
2026-05-07 21:53 47.39098 7.54392 7597 ft 221 kts 147°
2026-05-07 21:53 47.37835 7.55677 7456 ft 221 kts 147°
2026-05-07 21:53 47.36572 7.56954 7375 ft 218 kts 147°
2026-05-07 21:53 47.35300 7.58167 7385 ft 218 kts 151°
2026-05-07 21:54 47.34009 7.59309 7366 ft 220 kts 150°
2026-05-07 21:54 47.32705 7.60500 7352 ft 221 kts 145°
2026-05-07 21:54 47.31709 7.62271 7035 ft 230 kts 110°
2026-05-07 21:54 47.31619 7.64518 7080 ft 220 kts 74°
2026-05-07 21:55 47.32188 7.66620 7115 ft 223 kts 68°
2026-05-07 21:55 47.32799 7.68750 7133 ft 227 kts 66°
2026-05-07 21:55 47.33780 7.70592 6759 ft 238 kts 32°
2026-05-07 21:55 47.35411 7.71088 6116 ft 251 kts 349°
2026-05-07 21:56 47.36919 7.69963 6143 ft 229 kts 322°
2026-05-07 21:56 47.38083 7.68578 6196 ft 212 kts 321°
2026-05-07 21:56 47.39247 7.67277 5989 ft 207 kts 323°
2026-05-07 21:56 47.40387 7.66003 5771 ft 202 kts 327°
2026-05-07 21:57 47.41594 7.64961 5440 ft 207 kts 335°
2026-05-07 21:57 47.42914 7.64106 5100 ft 206 kts 338°
2026-05-07 21:57 47.44210 7.63248 4880 ft 203 kts 336°
2026-05-07 21:57 47.45479 7.62388 4613 ft 198 kts 336°
2026-05-07 21:58 47.46689 7.61515 4450 ft 185 kts 334°
2026-05-07 21:58 47.47776 7.60697 4283 ft 165 kts 334°
2026-05-07 21:58 47.48724 7.59993 4084 ft 140 kts 335°
2026-05-07 21:58 47.49599 7.59369 3859 ft 144 kts 338°
2026-05-07 21:59 47.50539 7.58782 3467 ft 148 kts 337°
2026-05-07 21:59 47.51431 7.58180 3254 ft 136 kts 337°
2026-05-07 21:59 47.52298 7.57577 2780 ft 136 kts 338°
2026-05-07 21:59 47.53175 7.56965 2565 ft 142 kts 337°
2026-05-07 22:00 47.54082 7.56319 2290 ft 144 kts 335°
2026-05-07 22:00 47.54952 7.55724 2067 ft 136 kts 335°
2026-05-07 22:00 47.55801 7.55120 1830 ft 136 kts 335°
2026-05-07 22:00 47.56648 7.54527 1653 ft 135 kts 334°
2026-05-07 22:01 47.57460 7.53985 1384 ft 123 kts 335°
2026-05-07 22:01 47.58250 7.53442 1272 ft 126 kts 335°
2026-05-07 22:01 47.59058 7.52877 1048 ft 127 kts 334°
2026-05-07 22:01 47.59821 7.52342 899 ft 114 kts 334°
2026-05-07 22:02 47.60426 7.51919 881 ft 76 kts 335°
2026-05-07 22:02 47.60812 7.51654 880 ft 48 kts 335°
2026-05-07 22:02 47.61006 7.51531 874 ft 17 kts 359°
2026-05-07 22:02 47.61068 7.51646 873 ft 13 kts 65°
2026-05-07 22:03 47.61067 7.51764 873 ft 11 kts 128°
2026-05-07 22:03 47.60999 7.51819 875 ft 11 kts 155°
2026-05-07 22:03 47.60928 7.51868 877 ft 11 kts 153°
2026-05-07 22:03 47.60853 7.51921 880 ft 12 kts 155°
2026-05-07 22:04 47.60769 7.51979 880 ft 14 kts 156°
2026-05-07 22:04 47.60677 7.52044 880 ft 15 kts 154°
2026-05-07 22:04 47.60577 7.52112 881 ft 17 kts 155°
2026-05-07 22:04 47.60468 7.52189 881 ft 18 kts 155°
2026-05-07 22:05 47.60353 7.52268 883 ft 18 kts 155°
2026-05-07 22:05 47.60240 7.52346 888 ft 17 kts 155°
2026-05-07 22:05 47.60131 7.52422 889 ft 18 kts 155°
2026-05-07 22:05 47.60012 7.52505 889 ft 20 kts 155°
2026-05-07 22:06 47.59884 7.52594 889 ft 21 kts 154°
2026-05-07 22:06 47.59789 7.52660 889 ft 9 kts 148°
2026-05-07 22:06 47.59770 7.52736 889 ft 8 kts 91°
2026-05-07 22:06 47.59784 7.52813 889 ft 6 kts 63°
2026-05-07 22:07 47.59793 7.52841 889 ft 2 kts 65°
2026-05-07 22:07 47.59796 7.52851 889 ft 0 kts 64°